AO-07 1 07530U 74089B 22237.46049852 -.00000038 00000-0 47892-4 0 9993 2 07530 101.9105 217.5625 0011826 270.4309 211.4514 12.53656535186111 UO-11 1 14781U 84021B 22237.44201447 .00000296 00000-0 41865-4 0 9993 2 14781 97.6227 221.7526 0010001 94.3226 265.9132 14.83764966 50275 LO-19 1 20442U 90005G 22237.50195149 .00000046 00000-0 33619-4 0 9992 2 20442 98.8000 203.4391 0011200 331.4359 28.6210 14.33079391702999 HUBBLE 1 20580U 90037B 22237.28220076 .00001200 00000-0 59662-4 0 9992 2 20580 28.4702 72.6532 0002721 58.3718 109.7562 15.10788487576635 MET-2/21 1 22782U 93055A 22237.33232097 .00000048 00000-0 29437-4 0 9999 2 22782 82.5513 319.5735 0023028 151.4359 274.7545 13.83856425463533 AO-27 1 22825U 93061C 22237.35594515 .00000021 00000-0 26046-4 0 9996 2 22825 98.8835 269.8366 0007971 204.1939 155.8869 14.30187088508009 IO-26 1 22826U 93061D 22237.36247029 .00000029 00000-0 29003-4 0 9997 2 22826 98.8779 269.7182 0008750 190.6048 169.4951 14.30534855508267 FO-29 1 24278U 96046B 22237.49660955 -.00000024 00000-0 84015-5 0 9998 2 24278 98.5155 251.6868 0351363 104.1244 259.9201 13.53118937284947 NOAA-15 1 25338U 98030A 22237.66642307 .00000093 00000-0 56965-4 0 9998 2 25338 98.6410 266.2849 0011564 95.8451 264.4048 14.26164235263134 GO-32 1 25397U 98043D 22237.65064114 -.00000004 00000-0 18176-4 0 9995 2 25397 98.8221 188.3178 0000155 279.2607 80.8553 14.23766860253493 ISS 1 25544U 98067A 22237.84004201 .00040575 00000-0 71686-3 0 9997 2 25544 51.6425 351.5156 0003161 165.3508 343.0732 15.49935483355983 NO-44 1 26931U 01043C 22237.51893073 .00000011 00000-0 35974-4 0 9995 2 26931 67.0492 240.1249 0006647 257.4359 102.5999 14.30726049 91282 SO-50 1 27607U 02058C 22237.01609389 .00000142 00000-0 40033-4 0 9990 2 27607 64.5540 92.0763 0080965 281.2888 77.9124 14.76209448 58491 CO-55 1 27844U 03031E 22237.28938353 .00000108 00000-0 67938-4 0 9995 2 27844 98.6800 243.9394 0008618 262.2314 97.7885 14.22483261993654 CO-57 1 27848U 03031J 22237.48497891 .00000087 00000-0 59208-4 0 9995 2 27848 98.6845 244.6372 0008531 277.8204 82.2005 14.22036374993499 RS-22 1 27939U 03042A 22237.88193233 .00000222 00000-0 48015-4 0 9990 2 27939 98.2006 18.6201 0012530 355.0766 5.0322 14.67434227 11226 NOAA-18 1 28654U 05018A 22237.61279155 .00000107 00000-0 81459-4 0 9990 2 28654 98.9451 307.9811 0015138 133.7864 226.4562 14.12767727889839 CO-58 1 28895U 05043F 22237.32546049 .00000330 00000-0 71388-4 0 9990 2 28895 98.1152 7.6785 0015311 285.6441 74.3072 14.64437010897494 Falconsat-3 1 30776U 07006E 22237.18354955 .00023023 00000-0 29786-3 0 9997 2 30776 35.4297 168.5024 0004367 294.0135 66.0141 15.57949036860297 CO-65 1 32785U 08021C 22237.34636862 .00000847 00000-0 93799-4 0 9990 2 32785 97.6632 206.0412 0012931 13.1611 346.9942 14.89782868776811 AAUSAT2 1 32788U 08021F 22237.45223633 .00001639 00000-0 14371-3 0 9991 2 32788 97.5394 220.3614 0008860 246.8125 113.2165 14.97942271778866 DO-64 1 32789U 08021G 22237.32958915 .00004997 00000-0 26985-3 0 9990 2 32789 97.3369 261.1901 0012120 88.1470 272.1150 15.15100231782354 CO-66 1 32791U 08021J 22237.14779898 .00001510 00000-0 15060-3 0 9994 2 32791 97.6171 211.2702 0011701 328.1121 31.9390 14.92956670777520 RS-30 1 32953U 08025A 22237.59373667 .00000024 00000-0 10000-3 0 9999 2 32953 82.5049 140.9540 0020007 107.0248 253.3026 12.43112781646924 PRISM 1 33493U 09002B 22237.45124933 .00002379 00000-0 19475-3 0 9990 2 33493 98.2313 227.9627 0015436 322.9596 37.0560 15.00311707739320 NOAA-19 1 33591U 09005A 22237.76354862 .00000102 00000-0 80244-4 0 9997 2 33591 99.1439 273.3415 0013769 357.8394 2.2715 14.12601905698232 SRMSAT 1 37841U 11058D 22237.59910703 .00000308 00000-0 23927-4 0 9996 2 37841 19.9708 196.9552 0011878 24.7110 139.3354 14.10767046561248 HRBE 1 37855U 11061F 22237.41872713 .00005686 00000-0 24779-3 0 9993 2 37855 101.7174 33.0821 0150870 215.5975 143.5106 15.13306239591663 RS-40 1 38735U 12041C 22237.25658419 .00000014 00000-0 27134-4 0 9996 2 38735 82.4739 222.5868 0016133 218.9021 141.0896 12.42586761457064 ZACUBE-1 1 39417U 13066B 22237.41730203 .00000604 00000-0 79505-4 0 9996 2 39417 97.6423 205.8304 0057558 176.8798 183.2787 14.82528002473344 Delfi-N3xt 1 39428U 13066N 22237.37734985 .00001327 00000-0 20942-3 0 9997 2 39428 97.8142 168.7822 0118456 57.8243 303.4387 14.69396201468655 GOMX-1 1 39430U 13066Q 22237.79876916 .00000507 00000-0 98779-4 0 9990 2 39430 97.8035 141.0261 0148624 185.6979 174.2534 14.60315056466416 LO-74 1 39440U 13066AA 22237.41611782 .00000607 00000-0 88962-4 0 9992 2 39440 97.7308 192.0986 0076825 267.8257 91.4156 14.77196650470469 AO-73 1 39444U 13066AE 22237.45033066 .00000755 00000-0 95258-4 0 9993 2 39444 97.6302 208.2776 0056747 164.5300 195.7666 14.83644345471759 SPROUT 1 39770U 14029E 22237.62893398 .00004877 00000-0 49163-3 0 9998 2 39770 97.9474 355.0469 0008105 211.2436 148.8164 14.91581206447973 DTUSAT-2 1 40030U 14033W 22237.54424088 .00000794 00000-0 87842-4 0 9992 2 40030 97.9377 170.6020 0011445 178.6713 181.4537 14.90172965444448 EO-80 1 40032U 14033Y 22237.38347297 .00000829 00000-0 91498-4 0 9993 2 40032 97.9379 170.4550 0011366 180.2553 179.8660 14.90145607444408 HODOYOSHI-1 1 40299U 14070B 22237.85405207 .00002746 00000-0 10469-3 0 9995 2 40299 97.2387 303.9459 0010624 248.1473 171.7826 15.27471947433657 FIREBIRD FU3 1 40377U 15003B 22237.39965117 .00007399 00000-0 21339-3 0 9996 2 40377 99.0901 117.7612 0097467 150.6107 210.0660 15.31453760418967 FIREBIRD FU4 1 40378U 15003C 22237.22472420 .00007409 00000-0 21303-3 0 9992 2 40378 99.0908 117.7730 0097385 150.8084 209.8645 15.31552562418948 GRIFEX 1 40379U 15003D 22237.14055060 .00004190 00000-0 14743-3 0 9995 2 40379 99.1036 102.8118 0112794 196.0782 163.6860 15.24254569418085 XW-2A 1 40903U 15049E 22237.84962201 .00013597 00000-0 19646-3 0 9997 2 40903 97.1738 296.5841 0008292 211.3404 271.1105 15.56020893390046 XW-2C 1 40906U 15049H 22237.82073007 .00003032 00000-0 14509-3 0 9991 2 40906 97.4948 240.7111 0015529 114.3935 9.6563 15.19638556383457 XW-2D 1 40907U 15049J 22237.87710830 .00003523 00000-0 16459-3 0 9990 2 40907 97.4932 240.8109 0014849 110.2820 7.9943 15.20373185383517 LILACSAT-2 1 40908U 15049K 22237.86877497 .00001828 00000-0 98110-4 0 9994 2 40908 97.5193 237.7864 0016524 132.0617 345.5656 15.16111723383008 XW-2E 1 40909U 15049L 22237.87374023 .00005524 00000-0 22680-3 0 9998 2 40909 97.4654 245.4974 0013752 90.9902 27.4645 15.24543128383985 XW-2F 1 40910U 15049M 22237.82686520 .00005537 00000-0 23088-3 0 9990 2 40910 97.4738 244.6013 0014896 94.0043 30.7798 15.24006177383744 XW-2B 1 40911U 15049N 22237.84235133 .00003430 00000-0 16090-3 0 9998 2 40911 97.4923 241.3541 0014691 111.7530 10.2546 15.20252945383399 DCBB 1 40912U 15049P 22237.88229598 .00006349 00000-0 23977-3 0 9995 2 40912 97.4374 249.0057 0014288 62.9166 56.1691 15.27268351384342 TW-1A 1 40928U 15051D 22237.91842889 .00030761 00000-0 31237-3 0 9996 2 40928 97.0351 260.2051 0009064 119.2111 359.9231 15.65101076389083 IO-86 1 40931U 15052B 22237.60447825 .00000914 00000-0 37918-4 0 9998 2 40931 5.9999 35.7669 0013203 65.9067 294.2438 14.76848539373581 AO-85 1 40967U 15058D 22236.13585761 .00000852 00000-0 10715-3 0 4601 2 40967 64.7729 226.0128 0186358 178.5877 181.5743 14.77653171 70668 ATHENOXAT-1 1 41168U 15077C 22237.84612622 .00008560 00000-0 32669-3 0 9995 2 41168 14.9854 295.5115 0009818 131.5710 14.4666 15.22390600370897 ChubuSat-2 1 41338U 16012B 22237.60390859 .00000863 00000-0 58330-4 0 9995 2 41338 31.0031 303.5304 0013288 119.0671 241.1297 15.01570357357885 ChubuSat-3 1 41339U 16012C 22237.59350292 .00001084 00000-0 74892-4 0 9998 2 41339 31.0124 300.5193 0013143 127.7717 232.4111 15.01635010357885 Horyu-4 1 41340U 16012D 22237.48400680 .00001390 00000-0 92675-4 0 9994 2 41340 31.0039 278.1574 0013228 167.7240 192.3720 15.03642080358129 e-st@r-II 1 41459U 16025D 22237.74550421 .00005063 00000-0 21471-3 0 9993 2 41459 98.1918 48.1233 0142100 34.4262 326.6066 15.14871134347986 AAUSAT4 1 41460U 16025E 22237.44030383 .00008298 00000-0 30404-3 0 9991 2 41460 98.1838 54.6624 0120673 9.1422 351.1566 15.21630444348426 LO-87 1 41557U 16033B 22237.86336686 .00007731 00000-0 22184-3 0 9995 2 41557 97.3896 335.7534 0011488 124.8093 15.9150 15.36085278348039 NuSat2 1 41558U 16033C 22237.86647250 .00007670 00000-0 20730-3 0 9995 2 41558 97.4104 341.8456 0011147 115.1463 1.1650 15.37961150348316 Lapan A3 1 41603U 16040E 22237.86884824 .00000656 00000-0 32697-4 0 9997 2 41603 97.2024 271.8626 0011455 278.0554 255.4120 15.20826212342589 Pratham 1 41783U 16059A 22237.07653706 .00000160 00000-0 39733-4 0 9990 2 41783 97.9090 275.8671 0032390 319.0027 40.8741 14.63407670315667 TY-1 1 41844U 16066D 22237.83370692 .00007607 00000-0 24919-3 0 9992 2 41844 97.3892 249.5906 0013779 49.5141 76.0376 15.31849763322224 CAS-2T 1 41847U 16066G 22237.19766929 .00000240 00000-0 46102-4 0 9991 2 41847 98.5462 301.7765 0363482 4.4289 355.9971 14.38700165304238 EO-88 1 42017U 17008BX 22236.40123565 .00007746 00000-0 21992-3 0 9991 2 42017 97.2650 301.5980 0004599 22.2438 337.9005 15.36463617307503 CAS-4B 1 42759U 17034B 22237.91762731 .00002238 00000-0 13966-3 0 9997 2 42759 43.0189 309.6956 0009517 358.5758 350.3522 15.12312850286863 CAS-4A 1 42761U 17034D 22237.64298275 .00001997 00000-0 12574-3 0 9992 2 42761 43.0182 309.9481 0009799 358.9621 119.6749 15.12394234286830 NIUSat 1 42766U 17036B 22237.40569669 .00003897 00000-0 14788-3 0 9991 2 42766 97.1978 272.7905 0015191 84.6581 275.6391 15.27313026287324 Aalto 1 1 42775U 17036L 22237.35020033 .00003005 00000-0 11796-3 0 9999 2 42775 97.1932 272.5360 0014146 84.4361 275.8491 15.26374847287285 URSA MAIOR 1 42776U 17036M 22237.76282023 .00003544 00000-0 13599-3 0 9995 2 42776 97.1945 273.7347 0013762 82.0953 278.1848 15.27019064287383 Max Valier Sat 1 42778U 17036P 22237.43664903 .00003691 00000-0 13789-3 0 9996 2 42778 97.2006 276.1904 0012494 84.0878 276.1786 15.27904194287431 Pegasus 1 42784U 17036V 22237.33242602 .00004982 00000-0 17324-3 0 9993 2 42784 97.1945 277.0709 0011719 84.8248 275.4331 15.30098663287549 NUDATSat 1 42787U 17036Y 22237.54025231 .00012929 00000-0 37209-3 0 9990 2 42787 97.1981 281.9278 0009689 77.4826 282.7479 15.35851414287696 SUCHAI 1 1 42788U 17036Z 22237.37322700 .00005945 00000-0 19363-3 0 9994 2 42788 97.1952 278.9412 0010871 80.6891 279.5580 15.32151692287734 SKCUBE 1 42789U 17036AA 22237.34153688 .00005483 00000-0 18382-3 0 9996 2 42789 97.1949 278.2929 0010969 81.7010 278.5475 15.31250290287612 VZLUSAT 1 1 42790U 17036AB 22237.35966704 .00008429 00000-0 24517-3 0 9990 2 42790 97.1973 281.7037 0009438 74.7226 285.5061 15.35637956287813 VENTA 1 1 42791U 17036AC 22237.07661161 .00005024 00000-0 17255-3 0 9998 2 42791 97.1951 277.8601 0010811 83.0855 277.1616 15.30510163287550 Robusta 1B 1 42792U 17036AD 22236.09617273 .00005976 00000-0 19641-3 0 9992 2 42792 97.1949 277.7003 0010576 85.5902 274.6548 15.31858785287474 D-SAT 1 42794U 17036AF 22237.45552034 .00000290 00000-0 29508-4 0 9996 2 42794 97.4535 239.2421 0121542 213.4539 145.8963 14.92893804281775 TechnoSat 1 42829U 17042E 22237.36573481 .00000341 00000-0 38656-4 0 9992 2 42829 97.4144 87.4652 0015084 132.3521 227.8979 14.91995065278362 AO-91 1 43017U 17073E 22237.25783033 .00001887 00000-0 14583-3 0 9998 2 43017 97.6657 128.6248 0246245 322.7894 35.6470 14.81859255257306 PICSAT 1 43132U 18004X 22237.19796634 .00005770 00000-0 18384-3 0 9993 2 43132 97.3692 313.2592 0008819 112.3177 247.9001 15.32904431256934 AO-92 1 43137U 18004AC 22237.16243870 .00004470 00000-0 15417-3 0 9994 2 43137 97.3655 311.7376 0009066 115.1168 245.1015 15.30465029256856 TianYi 2 1 43155U 18008A 22237.88686772 .00003951 00000-0 20806-3 0 9990 2 43155 97.3475 294.0684 0014229 260.9745 213.6405 15.16095022253797 Zhou Enlai 1 43156U 18008B 22237.84622072 .00003392 00000-0 18024-3 0 9998 2 43156 97.3525 293.9269 0011635 263.4705 216.6872 15.15900858253717 TianYi 6 1 43158U 18008D 22237.80335457 .00003818 00000-0 20906-3 0 9999 2 43158 97.3485 291.7198 0010993 261.5780 161.8972 15.14762379253602 S-Net D 1 43186U 18014G 22237.29602867 .00001177 00000-0 10420-3 0 9998 2 43186 97.6522 141.7069 0012776 70.1502 290.1096 14.98107118249227 S-Net B 1 43187U 18014H 22237.29625022 .00001143 00000-0 10131-3 0 9999 2 43187 97.6517 141.6555 0012762 70.1044 290.1553 14.98105137249224 S-Net A 1 43188U 18014J 22237.29655204 .00001136 00000-0 10069-3 0 9997 2 43188 97.6522 141.7231 0012747 70.2346 290.0250 14.98104732249225 S-Net C 1 43189U 18014K 22237.29737264 .00001045 00000-0 93035-4 0 9999 2 43189 97.6517 141.6444 0012751 69.8619 290.3974 14.98102155247778 FMN 1 1 43192U 18015A 22237.90581578 .00018899 00000-0 45134-3 0 9998 2 43192 97.5418 25.0835 0010668 140.5773 10.6393 15.41511246254133 Shaonian Xing 1 43199U 18015H 22237.86781221 .00010348 00000-0 29600-3 0 9998 2 43199 97.5214 19.5446 0012957 149.9260 2.2259 15.36078679254092 SurfSat 1 43614U 18070B 22237.45103882 .00024645 00000-0 30401-3 0 9993 2 43614 93.0242 128.1363 0013480 101.4941 258.7839 15.59991149221808 CP-7 DAVE 1 43615U 18070C 22237.20501215 .00018961 00000-0 25061-3 0 9999 2 43615 93.0229 127.8091 0013904 104.7194 255.5613 15.58174683221726 ELFIN-B 1 43616U 18070D 22237.21777850 .00121299 00000-0 55079-3 0 9992 2 43616 93.0101 129.7008 0011462 99.2372 261.0203 15.83472132222173 ELFIN-A 1 43617U 18070E 22237.17480230 .00220466 17747-4 70426-3 0 9990 2 43617 93.0150 131.2716 0010368 104.5729 255.6703 15.90961158222243 CubeBel-1 1 43666U 18083E 22237.81160981 .00005409 00000-0 22411-3 0 9996 2 43666 97.4180 265.7451 0014797 91.7499 23.0685 15.24224934212042 Changshagaoxin 1 43669U 18083H 22237.86684089 .00005034 00000-0 21927-3 0 9999 2 43669 97.4131 261.5629 0011558 90.2744 34.7009 15.22599197211863 Ten-Koh 1 43677U 18084G 22237.32681395 .00000561 00000-0 62225-4 0 9994 2 43677 97.9728 8.0422 0016723 47.9712 312.2927 14.91241482207940 PO-101 1 43678U 18084H 22237.78485259 .00000170 00000-0 22395-4 0 9996 2 43678 97.9793 11.9016 0011103 60.6382 299.5946 14.92263010208195 IRVINE 01 1 43693U 18088D 22237.34575231 .00017105 00000-0 39985-3 0 9997 2 43693 85.0243 263.9800 0011175 191.7162 168.3833 15.41962881210829 QO-100 1 43700U 18090A 22237.36021788 .00000140 00000-0 00000-0 0 9998 2 43700 0.0207 144.7620 0001953 50.4835 293.8350 1.00272716 13721 Reaktor Hello World 1 43743U 18096AA 22237.18906141 .00005889 00000-0 17336-3 0 9994 2 43743 97.3505 316.8225 0015055 167.0091 193.1544 15.35337970208504 MinXSS-2 1 43758U 18099A 22237.47218134 .00001912 00000-0 16781-3 0 9999 2 43758 97.6204 303.7225 0015924 39.9271 320.3120 14.97685078203439 AO-95 1 43770U 18099N 22237.12274064 .00001403 00000-0 12765-3 0 9992 2 43770 97.6160 301.6840 0015056 50.5865 309.6687 14.96701040203286 RANGE-B 1 43772U 18099Q 22237.35402966 .00000799 00000-0 73561-4 0 9992 2 43772 97.6289 303.7510 0014560 36.9451 323.2771 14.97408989203345 RANGE-A 1 43773U 18099R 22237.39950424 .00001188 00000-0 11013-3 0 9990 2 43773 97.6088 300.7234 0014127 38.3899 321.8325 14.96227122203306 MOVE-II 1 43780U 18099Y 22237.42016317 .00001145 00000-0 10130-3 0 9998 2 43780 97.6218 303.2733 0013996 44.7417 315.4932 14.98171702203386 SNUSat 2 1 43782U 18099AA 22237.42996739 .00000465 00000-0 45480-4 0 9996 2 43782 97.6165 302.4641 0013095 35.3001 324.9086 14.96849427203359 SnugLite 1 43784U 18099AC 22237.39040472 .00001464 00000-0 13160-3 0 9997 2 43784 97.6125 302.0568 0015392 43.1060 317.1365 14.97086506203373 ITASat 1 1 43786U 18099AE 22237.17700784 .00000778 00000-0 72771-4 0 9995 2 43786 97.6185 302.6922 0015474 42.2387 318.0024 14.96809513203332 EAGLET 1 1 43790U 18099AJ 22237.13207795 .00001220 00000-0 11098-3 0 9997 2 43790 97.6182 303.1889 0014069 47.3405 312.9000 14.96942749203064 ESEO 1 43792U 18099AL 22237.42891537 -.00000046 00000-0 92557-6 0 9992 2 43792 97.6135 302.5931 0014110 42.8493 317.3825 14.96301923203145 CSIM 1 43793U 18099AM 22237.49583746 .00000858 00000-0 75794-4 0 9992 2 43793 97.6221 304.3149 0013263 34.9428 325.2662 14.98845727203224 Astrocast 0.1 1 43798U 18099AS 22237.40989925 .00002164 00000-0 18791-3 0 9992 2 43798 97.6208 304.0290 0012498 26.5375 333.6485 14.97997219203437 JO-97 1 43803U 18099AX 22237.43798511 .00000867 00000-0 79395-4 0 9997 2 43803 97.6147 302.7231 0015246 39.9058 320.3282 14.97365506203397 Suomi 100 1 43804U 18099AY 22237.12649289 .00001499 00000-0 13408-3 0 9995 2 43804 97.6145 302.3267 0015498 42.9808 317.2622 14.97253177203356 Al Farabi 2 1 43805U 18099AZ 22237.62034013 .00001976 00000-0 17225-3 0 9995 2 43805 97.6181 303.3743 0015706 40.5269 319.7112 14.97914661203458 CHOMPTT 1 43855U 18104G 22237.59762847 .00003795 00000-0 13515-3 0 9995 2 43855 85.0379 5.0138 0014318 349.3606 10.7334 15.28481069205283 ISAT 1 43879U 18111D 22237.52492171 .00001030 00000-0 91275-4 0 9992 2 43879 97.6573 141.8809 0013595 87.8220 272.4559 14.98306702197990 UWE-4 1 43880U 18111E 22237.38781279 .00000728 00000-0 65783-4 0 9996 2 43880 97.6609 142.4900 0012921 87.6059 272.6643 14.98449626200029 Sparrow 1 43881U 18111F 22237.53132966 .00001149 00000-0 10049-3 0 9999 2 43881 97.6614 142.8841 0012836 86.5781 273.6910 14.98615221198052 Lume 1 1 43908U 18111AJ 22237.14036610 .00003993 00000-0 13335-3 0 9995 2 43908 97.1817 122.8052 0017890 182.1409 177.9759 15.31446075203904 FO-99 1 43937U 19003F 22237.36636037 .00005294 00000-0 17256-3 0 9993 2 43937 97.1266 268.0853 0017812 265.7621 94.1586 15.32078419200521 MYSat 1 1 44045U 18092F 22237.62671965 .00031938 00000-0 38229-3 0 9996 2 44045 51.6291 85.9794 0005629 0.8607 359.2395 15.60655490198654 AstroCast 0.2 1 44083U 19018F 22237.41424628 .00004046 00000-0 15058-3 0 9991 2 44083 97.3170 295.0010 0008737 235.1628 124.8790 15.28024507189011 AISTechSat 3 1 44103U 19018AB 22237.44516176 .00003932 00000-0 14429-3 0 9991 2 44103 97.3035 295.3520 0010304 246.6216 113.3941 15.28496127189186 AISat 1 1 44104U 19018AC 22237.55614683 .00003455 00000-0 96258-4 0 9997 2 44104 97.3944 320.9915 0049790 244.8634 114.7440 15.36258402190209 Prox-1 1 44339U 19036A 22237.38250157 .00001730 00000-0 34234-3 0 9999 2 44339 23.9999 118.2182 0010988 250.3355 109.5951 14.55369706168403 Oculus-ASR 1 44348U 19036K 22237.21641699 .00036760 -59025-5 30421-3 0 9998 2 44348 28.5011 75.2089 0218927 7.6848 352.7031 15.42861301175156 NO-104 1 44354U 19036R 22237.20941772 .00039990 -57554-5 31023-3 0 9991 2 44354 28.5233 59.2619 0208694 29.8854 331.3484 15.46140128175317 Move-IIb 1 44398U 19038N 22237.91130953 .00006880 00000-0 32221-3 0 9991 2 44398 97.6350 207.9633 0018813 243.9129 116.0167 15.19894514173584 SONATE 1 44400U 19038Q 22237.54832424 .00002955 00000-0 16048-3 0 9994 2 44400 97.6451 206.4052 0021345 253.6908 106.1963 15.15146825173390 BeeSat 9 1 44412U 19038AC 22237.43295291 .00003112 00000-0 15714-3 0 9995 2 44412 97.6405 207.2847 0017915 253.9577 105.9684 15.17736943173155 JAISAT-1 1 44419U 19038F 22237.39715387 .00003519 00000-0 17494-3 0 9998 2 44419 97.6408 208.1392 0016927 250.6447 109.2957 15.18209309173514 LightSail-2 1 44420U 19036AC 22237.46658338 .00036244 00000-0 38747-2 0 9992 2 44420 23.9993 36.2144 0015058 7.4937 352.5786 14.87252649167345 Taurus 1 1 44530U 19059C 22237.76860635 .00001404 00000-0 39580-3 0 9994 2 44530 98.5491 336.9638 0012082 267.6696 92.3099 14.47290181155872 Duchifat 3 1 44854U 19089C 22237.83479693 .00002269 00000-0 17843-3 0 9992 2 44854 36.9659 48.9026 0007540 53.3619 78.9164 15.01444263148364 OPS-SAT 1 44878U 19092F 22237.75477994 .00003943 00000-0 18053-3 0 9999 2 44878 97.4808 61.1603 0013595 97.8830 262.3949 15.21008892148727 TO-108 1 44881U 19093C 22237.79515793 .00000323 00000-0 47529-4 0 9998 2 44881 97.8907 316.0038 0014200 325.5989 34.4295 14.81792454145042 FloripaSat 1 1 44885U 19093G 22237.76198950 .00001224 00000-0 15576-3 0 9998 2 44885 97.8943 317.4419 0013660 331.1985 28.8467 14.83342360145128 RS-44 1 44909U 19096E 22237.53887933 .00000010 00000-0 -99309-5 0 9990 2 44909 82.5240 184.3820 0217710 157.9210 203.1448 12.79714421124342 BY70-2 1 45857U 20042B 22237.78477206 .00004208 00000-0 55609-3 0 9996 2 45857 97.9533 313.9889 0009177 243.9254 116.0927 14.80502771115717 UPMSat 2 1 46276U 20061E 22237.50280428 .00001537 00000-0 77505-4 0 9993 2 46276 97.3878 306.7543 0000488 36.9120 323.2148 15.18604394109350 AmicalSat 1 46287U 20061R 22237.46026416 .00002334 00000-0 13498-3 0 9991 2 46287 97.4424 305.5601 0003634 61.2389 298.9207 15.13234769108900 SALSAT 1 46495U 20068K 22237.45938336 .00001600 00000-0 11772-3 0 9999 2 46495 97.7315 178.8014 0017491 47.2993 312.9702 15.04743180104560 BY70-3 1 46839U 20079N 22237.75586742 .00014362 00000-0 31058-3 0 9994 2 46839 97.1929 309.0479 0006519 89.2802 8.9468 15.44568610100939 CAPE 3 1 47309U 21002A 22237.50894168 .00004903 00000-0 19851-3 0 9998 2 47309 60.6827 104.5903 0032743 25.5422 334.7275 15.25800451 88980 AO-109 1 47311U 21002C 22237.34341454 .00003245 00000-0 13403-3 0 9993 2 47311 60.6851 102.7366 0028623 26.5737 333.6811 15.26204712 88977 MiTEE 1 1 47314U 21002F 22237.28541546 .00008221 00000-0 27005-3 0 9995 2 47314 60.6815 94.2565 0025574 19.2693 340.9359 15.32086214 89137 ExoCube 2 1 47319U 21002L 22237.36212838 .00003715 00000-0 15368-3 0 9990 2 47319 60.6837 103.8898 0030180 27.6188 332.6496 15.25753535 88928 UVSQ-SAT 1 47438U 21006AB 22237.12223285 .00002606 00000-0 13758-3 0 9997 2 47438 97.4324 294.7321 0012648 43.6605 316.5626 15.16340974 87688 YUSAT 1 1 47439U 21006AC 22237.39999282 .00002657 00000-0 13803-3 0 9991 2 47439 97.4331 295.1565 0012295 42.8294 317.3894 15.16893758 87730 SOMP 2b 1 47445U 21006AJ 22237.46594596 .00002179 00000-0 11680-3 0 9995 2 47445 97.4297 294.6751 0012401 46.6391 313.5873 15.15978491 87729 IDEASSat 1 47458U 21006AX 22237.38919700 .00002468 00000-0 13245-3 0 9998 2 47458 97.4386 295.1604 0011572 45.9696 314.2488 15.15816158 87702 CubeSX-Sirius-HSE 1 47951U 21022V 22237.78877079 .00002594 00000-0 17243-3 0 9992 2 47951 97.5233 135.8487 0019138 269.0377 179.8911 15.07911230 78447 CubeSX-HSE 1 47952U 21022W 22237.77267127 .00002108 00000-0 14070-3 0 9995 2 47952 97.5217 135.8567 0019177 268.9809 175.7081 15.07963952 78441 KSU-Cubesat 1 47954U 21022Y 22237.44445059 .00001580 00000-0 10575-3 0 9992 2 47954 97.5230 135.6655 0018495 269.3553 90.5556 15.08232966 78128 GRBAlpha 1 47959U 21022AD 22237.77066391 .00002083 00000-0 13902-3 0 9997 2 47959 97.5220 135.8983 0018937 269.9176 180.3471 15.07991996 77268 Orbicraft-Zorkiy 1 47960U 21022AE 22237.86609284 .00003038 00000-0 19991-3 0 9998 2 47960 97.5250 136.1553 0018819 269.1607 155.5232 15.08168344 77971 STECCO 1 47962U 21022AG 22237.85475079 .00004318 00000-0 26644-3 0 9997 2 47962 97.5221 137.0050 0013593 260.2876 164.2396 15.10370492 77348 DO-111 1 47963U 21022AH 22237.52769724 .00006814 00000-0 36535-3 0 9998 2 47963 97.5248 138.1478 0014010 252.0369 107.9336 15.15219489 77403 MO-110 1 47964U 21022AJ 22237.40596523 .00003219 00000-0 19736-3 0 9991 2 47964 97.5226 136.8645 0016354 258.4488 101.4906 15.10757149 77290 FEES 1 48082U 21022AL 22237.24180468 .00003188 00000-0 19163-3 0 9991 2 48082 97.5235 136.6906 0012329 254.7140 105.2727 15.11533658 76977 RamSat 1 48850U 98067SL 22237.46742293 .00089642 00000-0 42203-3 0 9991 2 48850 51.6365 322.2644 0006258 346.0268 14.0561 15.82338758 68210 TUBIN 1 48900U 21059X 22237.76746038 .00002524 00000-0 14128-3 0 9997 2 48900 97.5618 6.5628 0009043 217.8168 248.3145 15.14336883 64408 IT-SPINS 1 49017U 21013G 22237.81848543 .00004325 00000-0 17059-3 0 9994 2 49017 51.5954 67.4385 0007569 328.0653 31.9867 15.27618807 64389 LEDSAT 1 49069U 21073D 22237.48353821 .00002149 00000-0 13832-3 0 9997 2 49069 97.5207 309.0111 0028055 60.0185 300.3823 15.09109521 56244 CUTE 1 49263U 21088D 22237.41948182 .00001382 00000-0 10544-3 0 9997 2 49263 97.5829 303.9667 0019897 186.2250 173.8732 15.03500868 49783 Binar-1 1 49272U 98067SR 22237.44148734 .00124858 00000-0 50773-3 0 9998 2 49272 51.6303 325.7725 0005541 333.4174 26.6545 15.85300716 50554 CUAVA-1 1 49275U 98067SU 22237.67416638 .00870372 46496-3 71567-3 0 9992 2 49275 51.6210 316.3814 0011519 343.3839 139.9926 16.13286208 50641 TeikyoSat 4 1 49396U 21102B 22237.43631131 .00001002 00000-0 83336-4 0 9995 2 49396 97.5262 293.3086 0017658 24.9243 335.2830 15.00763818 43398 Z-Sat 1 49399U 21102E 22237.75158595 .00000594 00000-0 48664-4 0 9991 2 49399 97.5332 294.6243 0022551 1.1565 358.9708 15.02759676 43496 KOSEN 1 1 49402U 21102H 22237.43169224 .00001152 00000-0 87677-4 0 9990 2 49402 97.5254 294.4789 0021614 350.4729 9.6084 15.03856331 43470 HO-113 1 50466U 21131B 22237.79808135 -.00000036 00000-0 28459-5 0 9999 2 50466 98.5780 315.0109 0003406 310.2448 49.8441 14.38516715 34888 Tevel 1 50999U 22002R 22237.79158007 .00004450 00000-0 23715-3 0 9995 2 50999 97.4763 303.7647 0011347 170.7545 285.0892 15.15652899 33927 Grizu-263a 1 51025U 22002AT 22237.18221576 .00005322 00000-0 26329-3 0 9994 2 51025 97.4943 304.1259 0012819 178.5716 181.5557 15.18171992 33867 NO-116 1 51031U 22002AZ 22237.13528392 .00004583 00000-0 23571-3 0 9996 2 51031 97.4893 303.7487 0013015 179.1780 180.9477 15.16874435 33845 IRIS-A 1 51044U 22002BN 22237.41689900 .00001665 00000-0 95522-4 0 9998 2 51044 97.4780 303.0546 0009285 176.7925 183.3367 15.13901440 33840 DELFI-PQ 1 51074U 22002CU 22237.18754208 .00004229 00000-0 20809-3 0 9993 2 51074 97.5022 304.6631 0012891 209.1506 150.9009 15.18483010 33888 SO-115 1 51080U 22002DA 22233.64163238 .00005079 00000-0 25734-3 0 9990 2 51080 97.5031 301.0016 0012318 222.5250 137.5031 15.17360525 33332 SO-114 1 51081U 22002DB 22237.00526153 .00003694 00000-0 18794-3 0 9993 2 51081 97.5025 304.3082 0013051 209.9746 150.0741 15.17388182 33842 OreSat0 1 52017U 22026K 22237.42998420 .00003136 00000-0 16652-3 0 9997 2 52017 97.5046 236.4249 0027989 38.9795 321.3448 15.15734340 24637 Planetum 1 1 52738U 22057G 22237.53303767 .00002640 00000-0 15538-3 0 9998 2 52738 97.5180 351.0939 0006976 298.3181 61.7346 15.12492596 13877 Foresail-1 1 52766U 22057AL 22237.87315914 .00002330 00000-0 13293-3 0 9995 2 52766 97.5272 351.7306 0012128 274.2691 205.1037 15.13705333 13935 SNUGLITE 2 1 52899U 22065F 22237.79809060 .00000458 00000-0 10830-3 0 9995 2 52899 98.0275 26.8168 0009327 63.6842 296.5312 14.58394394 7800 CTIM 1 52950U 22074G 22237.53926483 .00006510 00000-0 27186-3 0 9991 2 52950 45.0178 183.2136 0003014 201.4845 158.5883 15.24422522 8278 MTCube 2 1 53106U 22080B 22234.52935672 -.00000003 00000-0 00000-0 0 9993 2 53106 70.1491 63.4811 0008236 248.1161 111.8631 6.42558430 2565 AstroBioCubeSat 1 53107U 22080C 22228.63860713 -.00000003 00000-0 00000+0 0 9991 2 53107 70.1504 65.5620 0013481 242.6974 117.2413 6.42110769 2085 GREENCUBE 1 53109U 22080E 22236.55102104 -.00000003 00000-0 00000-0 0 9997 2 53109 70.1383 62.5839 0009335 235.4326 124.5458 6.42583844 2588 CELESTA 1 53111U 22080G 22209.16019017 -.00000003 00000-0 00000-0 0 9997 2 53111 70.1517 72.3224 0015664 220.2144 139.7964 6.42532870 816 RS4S 1 53306U 98067TR 22237.53272110 .00024509 00000-0 40113-3 0 9996 2 53306 51.6428 352.7754 0001647 155.6859 204.4209 15.52356276 5429 RS3S 1 53308U 98067TT 22237.53210930 .00024489 00000-0 40077-3 0 9996 2 53308 51.6427 352.7713 0001512 138.1543 221.9562 15.52358637 5487 RS1S 1 53309U 98067TU 22237.53121094 .00024730 00000-0 40366-3 0 9999 2 53309 51.6425 352.7643 0001938 167.6715 192.4323 15.52425119 5430 RS5S 1 53310U 98067TV 22237.53164907 .00024147 00000-0 39545-3 0 9990 2 53310 51.6430 352.7686 0001681 169.5311 190.5715 15.52347506 5463 RS6S 1 53311U 98067TW 22237.52925714 .00023906 00000-0 38869-3 0 9991 2 53311 51.6424 352.7512 0001314 121.5520 238.5598 15.52555171 5481 RS9S 1 53312U 98067TX 22237.53002737 .00024628 00000-0 40130-3 0 9990 2 53312 51.6428 352.7566 0002125 172.1414 187.9610 15.52476395 5426 RS12S 1 53313U 98067TY 22237.52903282 .00024664 00000-0 40124-3 0 9998 2 53313 51.6428 352.7506 0001680 181.1574 178.9412 15.52520135 5470 /EX